ACG01 YPKG-YPPH

Flight info

Callsign ACG01
Flight time N/A
Altitude 26000
Route KG DCT 3100S12024E DCT GIVEB V242 KELLA DCT CUN DCT AMANA DCT WAYNS DCT ROLOB
Aircraft A321/M-SDE3FGHIRWY/LB1

Departure

Time 2026-05-05 05:53
Airport Kalgoorlie Boulder Airport (YPKG)

Arrival

Time N/A
Airport Perth International Airport (YPPH)
Time Latitude Longitude Altitude Speed Heading
2026-05-05 05:40 -30.78638 121.45908 1218 ft 0 kts
2026-05-05 05:50 -30.78624 121.45907 1218 ft 14 kts 350°
2026-05-05 05:50 -30.78637 121.45812 1218 ft 24 kts 206°
2026-05-05 05:51 -30.78718 121.45778 1218 ft 0 kts 194°
2026-05-05 05:51 -30.78763 121.45764 1218 ft 24 kts 195°
2026-05-05 05:51 -30.78873 121.45629 1218 ft 33 kts 284°
2026-05-05 05:52 -30.78795 121.45438 1218 ft 15 kts 231°
2026-05-05 05:52 -30.78866 121.45529 1218 ft 43 kts 91°
2026-05-05 05:52 -30.79043 121.46133 1218 ft 118 kts 111°
2026-05-05 05:52 -30.79417 121.47238 1481 ft 166 kts 110°
2026-05-05 05:53 -30.79807 121.48512 2655 ft 170 kts 108°
2026-05-05 05:53 -30.80421 121.49801 3552 ft 204 kts 129°
2026-05-05 05:53 -30.81706 121.50882 3800 ft 255 kts 156°
2026-05-05 05:53 -30.83460 121.51142 5083 ft 255 kts 183°
2026-05-05 05:54 -30.85182 121.50540 6267 ft 264 kts 207°
2026-05-05 05:54 -30.86580 121.49135 7421 ft 271 kts 231°
2026-05-05 05:54 -30.87392 121.47166 8522 ft 278 kts 254°
2026-05-05 05:54 -30.87475 121.44894 9602 ft 287 kts 277°
2026-05-05 05:55 -30.86778 121.42702 10662 ft 294 kts 300°
2026-05-05 05:55 -30.85385 121.40930 11654 ft 301 kts 323°
2026-05-05 05:55 -30.83485 121.39860 12603 ft 307 kts 345°
2026-05-05 05:55 -30.81357 121.39676 13567 ft 309 kts
2026-05-05 05:56 -30.79313 121.40359 14489 ft 311 kts 23°
2026-05-05 05:56 -30.77175 121.40926 15347 ft 320 kts
2026-05-05 05:56 -30.74967 121.40565 16258 ft 324 kts 341°
2026-05-05 05:56 -30.72986 121.39323 17123 ft 325 kts 320°
2026-05-05 05:57 -30.71275 121.37589 17975 ft 328 kts 312°
2026-05-05 05:57 -30.70009 121.35403 18789 ft 326 kts 291°
2026-05-05 05:57 -30.69499 121.32865 19640 ft 322 kts 270°
2026-05-05 05:57 -30.69748 121.30295 20415 ft 321 kts 252°
2026-05-05 05:58 -30.70450 121.27819 21208 ft 323 kts 248°
2026-05-05 05:58 -30.71221 121.25346 21942 ft 327 kts 248°
2026-05-05 05:58 -30.72015 121.22890 22672 ft 330 kts 247°
2026-05-05 05:58 -30.72844 121.20383 23398 ft 332 kts 247°
2026-05-05 05:59 -30.73687 121.17862 24090 ft 335 kts 247°
2026-05-05 05:59 -30.74545 121.15322 24763 ft 338 kts 247°
2026-05-05 05:59 -30.75401 121.12802 25426 ft 340 kts 247°
2026-05-05 05:59 -30.76280 121.10222 26037 ft 345 kts 247°
2026-05-05 06:00 -30.77173 121.07602 26291 ft 349 kts 248°
2026-05-05 06:00 -30.78066 121.04979 26355 ft 347 kts 248°
2026-05-05 06:00 -30.78955 121.02370 26370 ft 347 kts 248°
2026-05-05 06:00 -30.79844 120.99760 26374 ft 346 kts 248°
2026-05-05 06:01 -30.80721 120.97186 26375 ft 346 kts 248°
2026-05-05 06:01 -30.81611 120.94574 26375 ft 346 kts 248°
2026-05-05 06:01 -30.82501 120.91958 26375 ft 346 kts 248°
2026-05-05 06:01 -30.83389 120.89348 26375 ft 346 kts 248°
2026-05-05 06:02 -30.84276 120.86739 26375 ft 346 kts 248°
2026-05-05 06:02 -30.85152 120.84160 26374 ft 346 kts 248°
2026-05-05 06:02 -30.86037 120.81553 26374 ft 346 kts 248°
2026-05-05 06:02 -30.86923 120.78942 26374 ft 346 kts 248°
2026-05-05 06:03 -30.87805 120.76338 26374 ft 346 kts 248°
2026-05-05 06:03 -30.88686 120.73739 26373 ft 344 kts 248°
2026-05-05 06:03 -30.89567 120.71136 26373 ft 344 kts 248°
2026-05-05 06:03 -30.90435 120.68570 26373 ft 343 kts 248°
2026-05-05 06:04 -30.91309 120.65981 26373 ft 343 kts 248°
2026-05-05 06:04 -30.92181 120.63399 26372 ft 343 kts 248°
2026-05-05 06:04 -30.93054 120.60813 26372 ft 343 kts 248°
2026-05-05 06:04 -30.93929 120.58218 26371 ft 343 kts 248°
2026-05-05 06:05 -30.94801 120.55630 26371 ft 343 kts 248°
2026-05-05 06:05 -30.95671 120.53043 26371 ft 343 kts 248°
2026-05-05 06:05 -30.96542 120.50456 26371 ft 343 kts 248°
2026-05-05 06:05 -30.97410 120.47872 26358 ft 343 kts 248°
2026-05-05 06:06 -30.98280 120.45283 26347 ft 343 kts 248°
2026-05-05 06:06 -30.99138 120.42727 26344 ft 343 kts 248°
2026-05-05 06:06 -30.99983 120.40131 26340 ft 343 kts 251°
2026-05-05 06:06 -31.00616 120.37445 26343 ft 343 kts 254°
2026-05-05 06:07 -31.01222 120.34734 26342 ft 343 kts 254°
2026-05-05 06:07 -31.01820 120.32067 26342 ft 343 kts 254°
2026-05-05 06:07 -31.02427 120.29371 26341 ft 343 kts 254°
2026-05-05 06:07 -31.03034 120.26676 26341 ft 343 kts 254°
2026-05-05 06:08 -31.03642 120.23978 26341 ft 343 kts 254°
2026-05-05 06:08 -31.04248 120.21294 26341 ft 342 kts 254°
2026-05-05 06:08 -31.04855 120.18602 26340 ft 342 kts 254°
2026-05-05 06:08 -31.05460 120.15918 26340 ft 342 kts 254°
2026-05-05 06:09 -31.05863 120.14133 26340 ft 342 kts 254°
2026-05-05 06:09 -31.06468 120.11445 26339 ft 342 kts 254°
2026-05-05 06:09 -31.07269 120.07885 26339 ft 342 kts 254°
2026-05-05 06:09 -31.07875 120.05191 26339 ft 342 kts 254°
2026-05-05 06:10 -31.08283 120.03374 26338 ft 342 kts 254°
2026-05-05 06:10 -31.08878 120.00719 26338 ft 342 kts 254°
2026-05-05 06:10 -31.09483 119.98025 26337 ft 343 kts 254°
2026-05-05 06:10 -31.10088 119.95321 26337 ft 343 kts 254°
2026-05-05 06:11 -31.10692 119.92623 26336 ft 343 kts 254°